Year,Month,Day,Hour,Minute,Value (Times are PST for temperature in C)
2017,08,09,00,00,17.20
2017,08,09,00,01,17.20
2017,08,09,00,02,17.20
2017,08,09,00,03,17.20
2017,08,09,00,04,17.20
2017,08,09,00,05,17.20
2017,08,09,00,06,17.10
2017,08,09,00,07,17.10
2017,08,09,00,08,17.10
2017,08,09,00,09,17.10
2017,08,09,00,10,17.10
2017,08,09,00,11,17.10
2017,08,09,00,12,17.10
2017,08,09,00,13,17.10
2017,08,09,00,14,17.10
2017,08,09,00,15,17.10
2017,08,09,00,16,17.00
2017,08,09,00,17,17.00
2017,08,09,00,18,17.00
2017,08,09,00,19,17.00
2017,08,09,00,20,17.00
2017,08,09,00,21,16.90
2017,08,09,00,22,16.90
2017,08,09,00,23,16.90
2017,08,09,00,24,16.90
2017,08,09,00,25,16.90
2017,08,09,00,26,16.90
2017,08,09,00,27,16.90
2017,08,09,00,28,16.80
2017,08,09,00,29,16.80
2017,08,09,00,30,16.80
2017,08,09,00,31,16.80
2017,08,09,00,32,16.80
2017,08,09,00,33,16.80
2017,08,09,00,34,16.70
2017,08,09,00,35,16.70
2017,08,09,00,36,16.70
2017,08,09,00,37,16.70
2017,08,09,00,38,16.70
2017,08,09,00,39,16.70
2017,08,09,00,40,16.70
2017,08,09,00,41,16.60
2017,08,09,00,42,16.60
2017,08,09,00,43,16.60
2017,08,09,00,44,16.60
2017,08,09,00,45,16.60
2017,08,09,00,46,16.60
2017,08,09,00,47,16.60
2017,08,09,00,48,16.60
2017,08,09,00,49,16.60
2017,08,09,00,50,16.60
2017,08,09,00,51,16.60
2017,08,09,00,52,16.60
2017,08,09,00,53,16.60
2017,08,09,00,54,16.60
2017,08,09,00,55,16.60
2017,08,09,00,56,16.60
2017,08,09,00,57,16.60
2017,08,09,00,58,16.50
2017,08,09,00,59,16.50
2017,08,09,01,00,16.50
2017,08,09,01,01,16.50
2017,08,09,01,02,16.50
2017,08,09,01,03,16.50
2017,08,09,01,04,16.50
2017,08,09,01,05,16.50
2017,08,09,01,06,16.50
2017,08,09,01,07,16.50
2017,08,09,01,08,16.50
2017,08,09,01,09,16.50
2017,08,09,01,10,16.50
2017,08,09,01,11,16.50
2017,08,09,01,12,16.50
2017,08,09,01,13,16.50
2017,08,09,01,14,16.50
2017,08,09,01,15,16.50
2017,08,09,01,16,16.50
2017,08,09,01,17,16.40
2017,08,09,01,18,16.40
2017,08,09,01,19,16.40
2017,08,09,01,20,16.40
2017,08,09,01,21,16.40
2017,08,09,01,22,16.40
2017,08,09,01,23,16.40
2017,08,09,01,24,16.40
2017,08,09,01,25,16.40
2017,08,09,01,26,16.40
2017,08,09,01,27,16.40
2017,08,09,01,28,16.40
2017,08,09,01,29,16.40
2017,08,09,01,30,16.40
2017,08,09,01,31,16.40
2017,08,09,01,32,16.40
2017,08,09,01,33,16.40
2017,08,09,01,34,16.40
2017,08,09,01,35,16.30
2017,08,09,01,36,16.30
2017,08,09,01,37,16.30
2017,08,09,01,38,16.30
2017,08,09,01,39,16.30
2017,08,09,01,40,16.30
2017,08,09,01,41,16.30
2017,08,09,01,42,16.30
2017,08,09,01,43,16.30
2017,08,09,01,44,16.20
2017,08,09,01,45,16.20
2017,08,09,01,46,16.20
2017,08,09,01,47,16.20
2017,08,09,01,48,16.20
2017,08,09,01,49,16.20
2017,08,09,01,50,16.20
2017,08,09,01,51,16.20
2017,08,09,01,52,16.20
2017,08,09,01,53,16.10
2017,08,09,01,54,16.10
2017,08,09,01,55,16.10
2017,08,09,01,56,16.10
2017,08,09,01,57,16.10
2017,08,09,01,58,16.10
2017,08,09,01,59,16.10
2017,08,09,02,00,16.10
2017,08,09,02,01,16.00
2017,08,09,02,02,16.00
2017,08,09,02,03,16.00
2017,08,09,02,04,16.00
2017,08,09,02,05,16.00
2017,08,09,02,06,16.00
2017,08,09,02,07,16.00
2017,08,09,02,08,16.00
2017,08,09,02,09,16.00
2017,08,09,02,10,15.90
2017,08,09,02,11,15.90
2017,08,09,02,12,15.90
2017,08,09,02,13,15.90
2017,08,09,02,14,15.90
2017,08,09,02,15,15.90
2017,08,09,02,16,15.90
2017,08,09,02,17,15.90
2017,08,09,02,18,15.90
2017,08,09,02,19,15.90
2017,08,09,02,20,15.90
2017,08,09,02,21,15.90
2017,08,09,02,22,15.80
2017,08,09,02,23,15.80
2017,08,09,02,24,15.80
2017,08,09,02,25,15.80
2017,08,09,02,26,15.80
2017,08,09,02,27,15.80
2017,08,09,02,28,15.80
2017,08,09,02,29,15.80
2017,08,09,02,30,15.80
2017,08,09,02,31,15.80
2017,08,09,02,32,15.80
2017,08,09,02,33,15.80
2017,08,09,02,34,15.80
2017,08,09,02,35,15.80
2017,08,09,02,36,15.80
2017,08,09,02,37,15.80
2017,08,09,02,38,15.80
2017,08,09,02,39,15.80
2017,08,09,02,40,15.80
2017,08,09,02,41,15.80
2017,08,09,02,42,15.80
2017,08,09,02,43,15.80
2017,08,09,02,44,15.80
2017,08,09,02,45,15.80
2017,08,09,02,46,15.80
2017,08,09,02,47,15.80
2017,08,09,02,48,15.80
2017,08,09,02,49,15.80
2017,08,09,02,50,15.80
2017,08,09,02,51,15.80
2017,08,09,02,52,15.80
2017,08,09,02,53,15.80
2017,08,09,02,54,15.80
2017,08,09,02,55,15.80
2017,08,09,02,56,15.80
2017,08,09,02,57,15.80
2017,08,09,02,58,15.80
2017,08,09,02,59,15.80
2017,08,09,03,00,15.80
2017,08,09,03,01,15.80
2017,08,09,03,02,15.80
2017,08,09,03,03,15.80
2017,08,09,03,04,15.80
2017,08,09,03,05,15.80
2017,08,09,03,06,15.80
2017,08,09,03,07,15.80
2017,08,09,03,08,15.80
2017,08,09,03,09,15.80
2017,08,09,03,10,15.80
2017,08,09,03,11,15.80
2017,08,09,03,12,15.80
2017,08,09,03,13,15.80
2017,08,09,03,14,15.80
2017,08,09,03,15,15.80
2017,08,09,03,16,15.80
2017,08,09,03,17,15.80
2017,08,09,03,18,15.80
2017,08,09,03,19,15.80
2017,08,09,03,20,15.80
2017,08,09,03,21,15.80
2017,08,09,03,22,15.80
2017,08,09,03,23,15.80
2017,08,09,03,24,15.80
2017,08,09,03,25,15.80
2017,08,09,03,26,15.80
2017,08,09,03,27,15.80
2017,08,09,03,28,15.80
2017,08,09,03,29,15.80
2017,08,09,03,30,15.80
2017,08,09,03,31,15.80
2017,08,09,03,32,15.80
2017,08,09,03,33,15.80
2017,08,09,03,34,15.70
2017,08,09,03,35,15.70
2017,08,09,03,36,15.70
2017,08,09,03,37,15.70
2017,08,09,03,38,15.70
2017,08,09,03,39,15.70
2017,08,09,03,40,15.70
2017,08,09,03,41,15.70
2017,08,09,03,42,15.70
2017,08,09,03,43,15.70
2017,08,09,03,44,15.70
2017,08,09,03,45,15.70
2017,08,09,03,46,15.70
2017,08,09,03,47,15.70
2017,08,09,03,48,15.70
2017,08,09,03,49,15.70
2017,08,09,03,50,15.70
2017,08,09,03,51,15.70
2017,08,09,03,52,15.70
2017,08,09,03,53,15.80
2017,08,09,03,54,15.80
2017,08,09,03,55,15.80
2017,08,09,03,56,15.80
2017,08,09,03,57,15.80
2017,08,09,03,58,15.80
2017,08,09,03,59,15.80
2017,08,09,04,00,15.80
2017,08,09,04,01,15.90
2017,08,09,04,02,15.80
2017,08,09,04,03,15.80
2017,08,09,04,04,15.80
2017,08,09,04,05,15.80
2017,08,09,04,06,15.80
2017,08,09,04,07,15.80
2017,08,09,04,08,15.90
2017,08,09,04,09,15.90
2017,08,09,04,10,15.90
2017,08,09,04,11,15.90
2017,08,09,04,12,15.90
2017,08,09,04,13,15.90
2017,08,09,04,14,15.80
2017,08,09,04,15,15.80
2017,08,09,04,16,15.80
2017,08,09,04,17,15.90
2017,08,09,04,18,15.80
2017,08,09,04,19,15.80
2017,08,09,04,20,15.80
2017,08,09,04,21,15.90
2017,08,09,04,22,15.90
2017,08,09,04,23,15.80
2017,08,09,04,24,15.80
2017,08,09,04,25,15.80
2017,08,09,04,26,15.80
2017,08,09,04,27,15.80
2017,08,09,04,28,15.80
2017,08,09,04,29,15.80
2017,08,09,04,30,15.80
2017,08,09,04,31,15.80
2017,08,09,04,32,15.80
2017,08,09,04,33,15.80
2017,08,09,04,34,15.80
2017,08,09,04,35,15.80
2017,08,09,04,36,15.80
2017,08,09,04,37,15.80
2017,08,09,04,38,15.80
2017,08,09,04,39,15.80
2017,08,09,04,40,15.90
2017,08,09,04,41,15.90
2017,08,09,04,42,15.90
2017,08,09,04,43,15.90
2017,08,09,04,44,16.00
2017,08,09,04,45,16.00
2017,08,09,04,46,16.00
2017,08,09,04,47,16.10
2017,08,09,04,48,16.10
2017,08,09,04,49,16.10
2017,08,09,04,50,16.10
2017,08,09,04,51,16.10
2017,08,09,04,52,16.10
2017,08,09,04,53,16.10
2017,08,09,04,54,16.10
2017,08,09,04,55,16.10
2017,08,09,04,56,16.10
2017,08,09,04,57,16.10
2017,08,09,04,58,16.10
2017,08,09,04,59,16.10
2017,08,09,05,00,16.10
2017,08,09,05,01,16.10
2017,08,09,05,02,16.10
2017,08,09,05,03,16.10
2017,08,09,05,04,16.10
2017,08,09,05,05,16.10
2017,08,09,05,06,16.10
2017,08,09,05,07,16.10
2017,08,09,05,08,16.10
2017,08,09,05,09,16.10
2017,08,09,05,10,16.00
2017,08,09,05,11,16.00
2017,08,09,05,12,16.00
2017,08,09,05,13,16.00
2017,08,09,05,14,16.00
2017,08,09,05,15,16.00
2017,08,09,05,16,16.00
2017,08,09,05,17,16.00
2017,08,09,05,18,16.00
2017,08,09,05,19,16.00
2017,08,09,05,20,16.00
2017,08,09,05,21,16.00
2017,08,09,05,22,16.00
2017,08,09,05,23,16.00
2017,08,09,05,24,16.00
2017,08,09,05,25,16.00
2017,08,09,05,26,16.00
2017,08,09,05,27,16.00
2017,08,09,05,28,16.00
2017,08,09,05,29,15.90
2017,08,09,05,30,15.90
2017,08,09,05,31,15.90
2017,08,09,05,32,15.90
2017,08,09,05,33,15.90
2017,08,09,05,34,15.90
2017,08,09,05,35,15.90
2017,08,09,05,36,15.90
2017,08,09,05,37,15.90
2017,08,09,05,38,15.90
2017,08,09,05,39,15.80
2017,08,09,05,40,15.80
2017,08,09,05,41,15.80
2017,08,09,05,42,15.80
2017,08,09,05,43,15.80
2017,08,09,05,44,15.80
2017,08,09,05,45,15.80
2017,08,09,05,46,15.80
2017,08,09,05,47,15.80
2017,08,09,05,48,15.80
2017,08,09,05,49,15.80
2017,08,09,05,50,15.90
2017,08,09,05,51,15.80
2017,08,09,05,52,15.80
2017,08,09,05,53,15.80
2017,08,09,05,54,15.80
2017,08,09,05,55,15.80
2017,08,09,05,56,15.80
2017,08,09,05,57,15.80
2017,08,09,05,58,15.80
2017,08,09,05,59,15.80
2017,08,09,06,00,15.80
2017,08,09,06,01,15.80
2017,08,09,06,02,15.80
2017,08,09,06,03,15.80
2017,08,09,06,04,15.80
2017,08,09,06,05,15.70
2017,08,09,06,06,15.70
2017,08,09,06,07,15.70
2017,08,09,06,08,15.70
2017,08,09,06,09,15.70
2017,08,09,06,10,15.70
2017,08,09,06,11,15.70
2017,08,09,06,12,15.70
2017,08,09,06,13,15.70
2017,08,09,06,14,15.70
2017,08,09,06,15,15.70
2017,08,09,06,16,15.70
2017,08,09,06,17,15.70
2017,08,09,06,18,15.70
2017,08,09,06,19,15.70
2017,08,09,06,20,15.70
2017,08,09,06,21,15.70
2017,08,09,06,22,15.70
2017,08,09,06,23,15.70
2017,08,09,06,24,15.60
2017,08,09,06,25,15.60
2017,08,09,06,26,15.60
2017,08,09,06,27,15.60
2017,08,09,06,28,15.60
2017,08,09,06,29,15.60
2017,08,09,06,30,15.60
2017,08,09,06,31,15.50
2017,08,09,06,32,15.50
2017,08,09,06,33,15.50
2017,08,09,06,34,15.50
2017,08,09,06,35,15.50
2017,08,09,06,36,15.40
2017,08,09,06,37,15.40
2017,08,09,06,38,15.40
2017,08,09,06,39,15.40
2017,08,09,06,40,15.40
2017,08,09,06,41,15.40
2017,08,09,06,42,15.40
2017,08,09,06,43,15.40
2017,08,09,06,44,15.40
2017,08,09,06,45,15.50
2017,08,09,06,46,15.50
2017,08,09,06,47,15.50
2017,08,09,06,48,15.50
2017,08,09,06,49,15.50
2017,08,09,06,50,15.50
2017,08,09,06,51,15.50
2017,08,09,06,52,15.50
2017,08,09,06,53,15.50
2017,08,09,06,54,15.50
2017,08,09,06,55,15.50
2017,08,09,06,56,15.50
2017,08,09,06,57,15.50
2017,08,09,06,58,15.50
2017,08,09,06,59,15.50
2017,08,09,07,00,15.50
2017,08,09,07,01,15.50
2017,08,09,07,02,15.50
2017,08,09,07,03,15.50
2017,08,09,07,04,15.50
2017,08,09,07,05,15.50
2017,08,09,07,06,15.50
2017,08,09,07,07,15.50
2017,08,09,07,08,15.50
2017,08,09,07,09,15.50
2017,08,09,07,10,15.50
2017,08,09,07,11,15.50
2017,08,09,07,12,15.50
2017,08,09,07,13,15.50
2017,08,09,07,14,15.50
2017,08,09,07,15,15.50
2017,08,09,07,16,15.50
2017,08,09,07,17,15.50
2017,08,09,07,18,15.50
2017,08,09,07,19,15.50
2017,08,09,07,20,15.50
2017,08,09,07,21,15.50
2017,08,09,07,22,15.50
2017,08,09,07,23,15.50
2017,08,09,07,24,15.60
2017,08,09,07,25,15.60
2017,08,09,07,26,15.60
2017,08,09,07,27,15.60
2017,08,09,07,28,15.60
2017,08,09,07,29,15.60
2017,08,09,07,30,15.60
2017,08,09,07,31,15.60
2017,08,09,07,32,15.60
2017,08,09,07,33,15.60
2017,08,09,07,34,15.60
2017,08,09,07,35,15.60
2017,08,09,07,36,15.70
2017,08,09,07,37,15.70
2017,08,09,07,38,15.70
2017,08,09,07,39,15.70
2017,08,09,07,40,15.70
2017,08,09,07,41,15.70
2017,08,09,07,42,15.70
2017,08,09,07,43,15.70
2017,08,09,07,44,15.70
2017,08,09,07,45,15.70
2017,08,09,07,46,15.70
2017,08,09,07,47,15.80
2017,08,09,07,48,15.80
2017,08,09,07,49,15.80
2017,08,09,07,50,15.80
2017,08,09,07,51,15.80
2017,08,09,07,52,15.80
2017,08,09,07,53,15.80
2017,08,09,07,54,15.90
2017,08,09,07,55,15.90
2017,08,09,07,56,15.90
2017,08,09,07,57,16.00
2017,08,09,07,58,16.00
2017,08,09,07,59,16.10
2017,08,09,08,00,16.10
2017,08,09,08,01,16.20
2017,08,09,08,02,16.20
2017,08,09,08,03,16.20
2017,08,09,08,04,16.30
2017,08,09,08,05,16.30
2017,08,09,08,06,16.30
2017,08,09,08,07,16.40
2017,08,09,08,08,16.40
2017,08,09,08,09,16.40
2017,08,09,08,10,16.40
2017,08,09,08,11,16.40
2017,08,09,08,12,16.50
2017,08,09,08,13,16.50
2017,08,09,08,14,16.60
2017,08,09,08,15,16.60
2017,08,09,08,16,16.70
2017,08,09,08,17,16.70
2017,08,09,08,18,16.80
2017,08,09,08,19,16.80
2017,08,09,08,20,16.90
2017,08,09,08,21,17.00
2017,08,09,08,22,17.00
2017,08,09,08,23,17.10
2017,08,09,08,24,17.20
2017,08,09,08,25,17.30
2017,08,09,08,26,17.40
2017,08,09,08,27,17.50
2017,08,09,08,28,17.60
2017,08,09,08,29,17.70
2017,08,09,08,30,17.80
2017,08,09,08,31,17.90
2017,08,09,08,32,18.10
2017,08,09,08,33,18.20
2017,08,09,08,34,18.20
2017,08,09,08,35,18.30
2017,08,09,08,36,18.40
2017,08,09,08,37,18.50
2017,08,09,08,38,18.60
2017,08,09,08,39,18.70
2017,08,09,08,40,18.70
2017,08,09,08,41,18.80
2017,08,09,08,42,18.90
2017,08,09,08,43,18.90
2017,08,09,08,44,19.00
2017,08,09,08,45,19.10
2017,08,09,08,46,19.20
2017,08,09,08,47,19.20
2017,08,09,08,48,19.30
2017,08,09,08,49,19.30
2017,08,09,08,50,19.40
2017,08,09,08,51,19.50
2017,08,09,08,52,19.50
2017,08,09,08,53,19.60
2017,08,09,08,54,19.60
2017,08,09,08,55,19.70
2017,08,09,08,56,19.70
2017,08,09,08,57,19.80
2017,08,09,08,58,19.80
2017,08,09,08,59,19.90
2017,08,09,09,00,20.00
2017,08,09,09,01,20.00
2017,08,09,09,02,20.10
2017,08,09,09,03,20.10
2017,08,09,09,04,20.10
2017,08,09,09,05,20.20
2017,08,09,09,06,20.20
2017,08,09,09,07,20.20
2017,08,09,09,08,20.20
2017,08,09,09,09,20.30
2017,08,09,09,10,20.30
2017,08,09,09,11,20.30
2017,08,09,09,12,20.30
2017,08,09,09,13,20.30
2017,08,09,09,14,20.30
2017,08,09,09,15,20.30
2017,08,09,09,16,20.30
2017,08,09,09,17,20.40
2017,08,09,09,18,20.40
2017,08,09,09,19,20.40
2017,08,09,09,20,20.40
2017,08,09,09,21,20.40
2017,08,09,09,22,20.50
2017,08,09,09,23,20.50
2017,08,09,09,24,20.50
2017,08,09,09,25,20.60
2017,08,09,09,26,20.60
2017,08,09,09,27,20.60
2017,08,09,09,28,20.60
2017,08,09,09,29,20.70
2017,08,09,09,30,20.70
2017,08,09,09,31,20.70
2017,08,09,09,32,20.80
2017,08,09,09,33,20.80
2017,08,09,09,34,20.80
2017,08,09,09,35,20.80
2017,08,09,09,36,20.80
2017,08,09,09,37,20.90
2017,08,09,09,38,20.90
2017,08,09,09,39,20.90
2017,08,09,09,40,20.90
2017,08,09,09,41,20.90
2017,08,09,09,42,20.90
2017,08,09,09,43,21.00
2017,08,09,09,44,21.00
2017,08,09,09,45,21.10
2017,08,09,09,46,21.10
2017,08,09,09,47,21.10
2017,08,09,09,48,21.20
2017,08,09,09,49,21.20
2017,08,09,09,50,21.20
2017,08,09,09,51,21.30
2017,08,09,09,52,21.30
2017,08,09,09,53,21.40
2017,08,09,09,54,21.40
2017,08,09,09,55,21.40
2017,08,09,09,56,21.40
2017,08,09,09,57,21.50
2017,08,09,09,58,21.50
2017,08,09,09,59,21.50
2017,08,09,10,00,21.60
2017,08,09,10,01,21.60
2017,08,09,10,02,21.60
2017,08,09,10,03,21.60
2017,08,09,10,04,21.70
2017,08,09,10,05,21.70
2017,08,09,10,06,21.70
2017,08,09,10,07,21.70
2017,08,09,10,08,21.80
2017,08,09,10,09,21.80
2017,08,09,10,10,21.80
2017,08,09,10,11,21.80
2017,08,09,10,12,21.90
2017,08,09,10,13,21.90
2017,08,09,10,14,21.90
2017,08,09,10,15,22.00
2017,08,09,10,16,22.10
2017,08,09,10,17,22.10
2017,08,09,10,18,22.20
2017,08,09,10,19,22.20
2017,08,09,10,20,22.20
2017,08,09,10,21,22.20
2017,08,09,10,22,22.20
2017,08,09,10,23,22.30
2017,08,09,10,24,22.30
2017,08,09,10,25,22.30
2017,08,09,10,26,22.40
2017,08,09,10,27,22.40
2017,08,09,10,28,22.40
2017,08,09,10,29,22.40
2017,08,09,10,30,22.50
2017,08,09,10,31,22.50
2017,08,09,10,32,22.60
2017,08,09,10,33,22.60
2017,08,09,10,34,22.60
2017,08,09,10,35,22.60
2017,08,09,10,36,22.70
2017,08,09,10,37,22.70
2017,08,09,10,38,22.80
2017,08,09,10,39,22.80
2017,08,09,10,40,22.80
2017,08,09,10,41,22.80
2017,08,09,10,42,22.80
2017,08,09,10,43,22.90
2017,08,09,10,44,22.90
2017,08,09,10,45,22.90
2017,08,09,10,46,23.00
2017,08,09,10,47,23.10
2017,08,09,10,48,23.10
2017,08,09,10,49,23.10
2017,08,09,10,50,23.10
2017,08,09,10,51,23.10
2017,08,09,10,52,23.20
2017,08,09,10,53,23.20
2017,08,09,10,54,23.30
2017,08,09,10,55,23.30
2017,08,09,10,56,23.30
2017,08,09,10,57,23.30
2017,08,09,10,58,23.20
2017,08,09,10,59,23.20
2017,08,09,11,00,23.20
2017,08,09,11,01,23.20
2017,08,09,11,02,23.20
2017,08,09,11,03,23.30
2017,08,09,11,04,23.30
2017,08,09,11,05,23.30
2017,08,09,11,06,23.30
2017,08,09,11,07,23.30
2017,08,09,11,08,23.40
2017,08,09,11,09,23.40
2017,08,09,11,10,23.40
2017,08,09,11,11,23.50
2017,08,09,11,12,23.60
2017,08,09,11,13,23.60
2017,08,09,11,14,23.60
2017,08,09,11,15,23.60
2017,08,09,11,16,23.60
2017,08,09,11,17,23.60
2017,08,09,11,18,23.60
2017,08,09,11,19,23.60
2017,08,09,11,20,23.70
2017,08,09,11,21,23.70
2017,08,09,11,22,23.80
2017,08,09,11,23,23.90
2017,08,09,11,24,23.90
2017,08,09,11,25,24.00
2017,08,09,11,26,24.00
2017,08,09,11,27,24.10
2017,08,09,11,28,24.10
2017,08,09,11,29,24.20
2017,08,09,11,30,24.20
2017,08,09,11,31,24.20
2017,08,09,11,32,24.10
2017,08,09,11,33,24.10
2017,08,09,11,34,24.10
2017,08,09,11,35,24.20
2017,08,09,11,36,24.20
2017,08,09,11,37,24.20
2017,08,09,11,38,24.20
2017,08,09,11,39,24.20
2017,08,09,11,40,24.20
2017,08,09,11,41,24.30
2017,08,09,11,42,24.30
2017,08,09,11,43,24.40
2017,08,09,11,44,24.50
2017,08,09,11,45,24.50
2017,08,09,11,46,24.50
2017,08,09,11,47,24.40
2017,08,09,11,48,24.40
2017,08,09,11,49,24.40
2017,08,09,11,50,24.30
2017,08,09,11,51,24.30
2017,08,09,11,52,24.30
2017,08,09,11,53,24.30
2017,08,09,11,54,24.30
2017,08,09,11,55,24.30
2017,08,09,11,56,24.20
2017,08,09,11,57,24.20
2017,08,09,11,58,24.20
2017,08,09,11,59,24.20
2017,08,09,12,00,24.20
2017,08,09,12,01,24.10
2017,08,09,12,02,24.10
2017,08,09,12,03,24.20
2017,08,09,12,04,24.20
2017,08,09,12,05,24.20
2017,08,09,12,06,24.20
2017,08,09,12,07,24.20
2017,08,09,12,08,24.20
2017,08,09,12,09,24.20
2017,08,09,12,10,24.30
2017,08,09,12,11,24.20
2017,08,09,12,12,24.20
2017,08,09,12,13,24.20
2017,08,09,12,14,24.10
2017,08,09,12,15,24.10
2017,08,09,12,16,24.00
2017,08,09,12,17,24.00
2017,08,09,12,18,24.00
2017,08,09,12,19,24.00
2017,08,09,12,20,24.00
2017,08,09,12,21,24.00
2017,08,09,12,22,24.00
2017,08,09,12,23,24.00
2017,08,09,12,24,24.00
2017,08,09,12,25,23.90
2017,08,09,12,26,23.90
2017,08,09,12,27,23.80
2017,08,09,12,28,23.80
2017,08,09,12,29,23.80
2017,08,09,12,30,23.80
2017,08,09,12,31,23.70
2017,08,09,12,32,23.70
2017,08,09,12,33,23.70
2017,08,09,12,34,23.70
2017,08,09,12,35,23.60
2017,08,09,12,36,23.60
2017,08,09,12,37,23.60
2017,08,09,12,38,23.60
2017,08,09,12,39,23.60
2017,08,09,12,40,23.70
2017,08,09,12,41,23.70
2017,08,09,12,42,23.70
2017,08,09,12,43,23.70
2017,08,09,12,44,23.70
2017,08,09,12,45,23.70
2017,08,09,12,46,23.70
2017,08,09,12,47,23.70
2017,08,09,12,48,23.80
2017,08,09,12,49,23.80
2017,08,09,12,50,23.90
2017,08,09,12,51,24.00
2017,08,09,12,52,24.10
2017,08,09,12,53,24.10
2017,08,09,12,54,24.10
2017,08,09,12,55,24.10
2017,08,09,12,56,24.10
2017,08,09,12,57,24.10
2017,08,09,12,58,24.10
2017,08,09,12,59,24.10
2017,08,09,13,00,24.00
2017,08,09,13,01,24.00
2017,08,09,13,02,24.00
2017,08,09,13,03,23.90
2017,08,09,13,04,23.90
2017,08,09,13,05,24.00
2017,08,09,13,06,24.00
2017,08,09,13,07,24.00
2017,08,09,13,08,24.00
2017,08,09,13,09,24.00
2017,08,09,13,10,24.10
2017,08,09,13,11,24.10
2017,08,09,13,12,24.10
2017,08,09,13,13,24.10
2017,08,09,13,14,24.20
2017,08,09,13,15,24.20
2017,08,09,13,16,24.20
2017,08,09,13,17,24.10
2017,08,09,13,18,24.10
2017,08,09,13,19,24.10
2017,08,09,13,20,24.10
2017,08,09,13,21,24.10
2017,08,09,13,22,24.10
2017,08,09,13,23,24.20
2017,08,09,13,24,24.20
2017,08,09,13,25,24.30
2017,08,09,13,26,24.40
2017,08,09,13,27,24.40
2017,08,09,13,28,24.40
2017,08,09,13,29,24.30
2017,08,09,13,30,24.30
2017,08,09,13,31,24.30
2017,08,09,13,32,24.30
2017,08,09,13,33,24.40
2017,08,09,13,34,24.40
2017,08,09,13,35,24.50
2017,08,09,13,36,24.50
2017,08,09,13,37,24.60
2017,08,09,13,38,24.70
2017,08,09,13,39,24.70
2017,08,09,13,40,24.80
2017,08,09,13,41,24.80
2017,08,09,13,42,24.80
2017,08,09,13,43,24.80
2017,08,09,13,44,24.80
2017,08,09,13,45,24.90
2017,08,09,13,46,24.90
2017,08,09,13,47,24.90
2017,08,09,13,48,24.90
2017,08,09,13,49,24.90
2017,08,09,13,50,24.90
2017,08,09,13,51,24.90
2017,08,09,13,52,25.00
2017,08,09,13,53,25.00
2017,08,09,13,54,25.00
2017,08,09,13,55,25.10
2017,08,09,13,56,25.10
2017,08,09,13,57,25.10
2017,08,09,13,58,25.20
2017,08,09,13,59,25.20
2017,08,09,14,00,25.20
2017,08,09,14,01,25.30
2017,08,09,14,02,25.30
2017,08,09,14,03,25.20
2017,08,09,14,04,25.20
2017,08,09,14,05,25.10
2017,08,09,14,06,25.00
2017,08,09,14,07,25.00
2017,08,09,14,08,25.00
2017,08,09,14,09,25.00
2017,08,09,14,10,25.00
2017,08,09,14,11,25.10
2017,08,09,14,12,25.20
2017,08,09,14,13,25.30
2017,08,09,14,14,25.30
2017,08,09,14,15,25.40
2017,08,09,14,16,25.40
2017,08,09,14,17,25.50
2017,08,09,14,18,25.50
2017,08,09,14,19,25.50
2017,08,09,14,20,25.50
2017,08,09,14,21,25.60
2017,08,09,14,22,25.60
2017,08,09,14,23,25.60
2017,08,09,14,24,25.60
2017,08,09,14,25,25.60
2017,08,09,14,26,25.60
2017,08,09,14,27,25.60
2017,08,09,14,28,25.60
2017,08,09,14,29,25.60
2017,08,09,14,30,25.60
2017,08,09,14,31,25.50
2017,08,09,14,32,25.40
2017,08,09,14,33,25.40
2017,08,09,14,34,25.50
2017,08,09,14,35,25.50
2017,08,09,14,36,25.60
2017,08,09,14,37,25.60
2017,08,09,14,38,25.60
2017,08,09,14,39,25.60
2017,08,09,14,40,25.60
2017,08,09,14,41,25.70
2017,08,09,14,42,25.80
2017,08,09,14,43,25.80
2017,08,09,14,44,25.80
2017,08,09,14,45,25.80
2017,08,09,14,46,25.90
2017,08,09,14,47,25.90
2017,08,09,14,48,25.90
2017,08,09,14,49,25.90
2017,08,09,14,50,25.80
2017,08,09,14,51,25.80
2017,08,09,14,52,25.70
2017,08,09,14,53,25.70
2017,08,09,14,54,25.60
2017,08,09,14,55,25.60
2017,08,09,14,56,25.60
2017,08,09,14,57,25.60
2017,08,09,14,58,25.60
2017,08,09,14,59,25.60
2017,08,09,15,00,25.60
2017,08,09,15,01,25.50
2017,08,09,15,02,25.30
2017,08,09,15,03,25.20
2017,08,09,15,04,25.10
2017,08,09,15,05,25.10
2017,08,09,15,06,25.00
2017,08,09,15,07,25.00
2017,08,09,15,08,25.10
2017,08,09,15,09,25.20
2017,08,09,15,10,25.30
2017,08,09,15,11,25.50
2017,08,09,15,12,25.50
2017,08,09,15,13,25.60
2017,08,09,15,14,25.70
2017,08,09,15,15,25.80
2017,08,09,15,16,25.90
2017,08,09,15,17,26.00
2017,08,09,15,18,26.00
2017,08,09,15,19,26.10
2017,08,09,15,20,26.10
2017,08,09,15,21,26.10
2017,08,09,15,22,26.10
2017,08,09,15,23,26.20
2017,08,09,15,24,26.20
2017,08,09,15,25,26.20
2017,08,09,15,26,26.10
2017,08,09,15,27,26.10
2017,08,09,15,28,26.10
2017,08,09,15,29,26.10
2017,08,09,15,30,26.20
2017,08,09,15,31,26.20
2017,08,09,15,32,26.20
2017,08,09,15,33,26.10
2017,08,09,15,34,26.00
2017,08,09,15,35,26.00
2017,08,09,15,36,25.90
2017,08,09,15,37,25.80
2017,08,09,15,38,25.80
2017,08,09,15,39,25.70
2017,08,09,15,40,25.70
2017,08,09,15,41,25.70
2017,08,09,15,42,25.70
2017,08,09,15,43,25.70
2017,08,09,15,44,25.60
2017,08,09,15,45,25.60
2017,08,09,15,46,25.60
2017,08,09,15,47,25.60
2017,08,09,15,48,25.70
2017,08,09,15,49,25.70
2017,08,09,15,50,25.80
2017,08,09,15,51,25.90
2017,08,09,15,52,26.00
2017,08,09,15,53,26.10
2017,08,09,15,54,26.10
2017,08,09,15,55,26.20
2017,08,09,15,56,26.30
2017,08,09,15,57,26.30
2017,08,09,15,58,26.30
2017,08,09,15,59,26.30
2017,08,09,16,00,26.40
2017,08,09,16,01,26.40
2017,08,09,16,02,26.30
2017,08,09,16,03,26.30
2017,08,09,16,04,26.20
2017,08,09,16,05,26.10
2017,08,09,16,06,26.00
2017,08,09,16,07,25.90
2017,08,09,16,08,25.80
2017,08,09,16,09,25.70
2017,08,09,16,10,25.70
2017,08,09,16,11,25.60
2017,08,09,16,12,25.60
2017,08,09,16,13,25.50
2017,08,09,16,14,25.50
2017,08,09,16,15,25.40
2017,08,09,16,16,25.40
2017,08,09,16,17,25.40
2017,08,09,16,18,25.50
2017,08,09,16,19,25.50
2017,08,09,16,20,25.50
2017,08,09,16,21,25.60
2017,08,09,16,22,25.60
2017,08,09,16,23,25.60
2017,08,09,16,24,25.70
2017,08,09,16,25,25.80
2017,08,09,16,26,25.90
2017,08,09,16,27,26.00
2017,08,09,16,28,26.00
2017,08,09,16,29,26.10
2017,08,09,16,30,26.10
2017,08,09,16,31,26.20
2017,08,09,16,32,26.20
2017,08,09,16,33,26.20
2017,08,09,16,34,26.20
2017,08,09,16,35,26.10
2017,08,09,16,36,26.00
2017,08,09,16,37,25.90
2017,08,09,16,38,25.90
2017,08,09,16,39,25.90
2017,08,09,16,40,25.80
2017,08,09,16,41,25.80
2017,08,09,16,42,25.70
2017,08,09,16,43,25.80
2017,08,09,16,44,25.80
2017,08,09,16,45,25.80
2017,08,09,16,46,25.90
2017,08,09,16,47,25.90
2017,08,09,16,48,26.00
2017,08,09,16,49,26.00
2017,08,09,16,50,26.00
2017,08,09,16,51,26.10
2017,08,09,16,52,26.10
2017,08,09,16,53,26.20
2017,08,09,16,54,26.20
2017,08,09,16,55,26.30
2017,08,09,16,56,26.40
2017,08,09,16,57,26.40
2017,08,09,16,58,26.50
2017,08,09,16,59,26.50
2017,08,09,17,00,26.50
2017,08,09,17,01,26.60
2017,08,09,17,02,26.60
2017,08,09,17,03,26.60
2017,08,09,17,04,26.60
2017,08,09,17,05,26.50
2017,08,09,17,06,26.40
2017,08,09,17,07,26.30
2017,08,09,17,08,26.30
2017,08,09,17,09,26.20
2017,08,09,17,10,26.10
2017,08,09,17,11,26.00
2017,08,09,17,12,25.90
2017,08,09,17,13,25.70
2017,08,09,17,14,25.60
2017,08,09,17,15,25.40
2017,08,09,17,16,25.20
2017,08,09,17,17,25.10
2017,08,09,17,18,24.90
2017,08,09,17,19,24.80